Location: Doverdale
(52.2833°N, 2.2000°W)
Time: 12:14:36
(UTC+00:00)

IRS-1A Rocket - Pass Details

Date: 29 October 2020
Orbit: 851 x 931 km, 99.2° (Epoch: 25 November)

Event Time Altitude Azimuth Distance (km) Brightness Sun altitude
Exits shadow 19:53:43 79° 315° (NW) 882 4.2 -29.2°
Drops below altitude 10° 19:58:57 10° 343° (NNW) 2,497 7.0 -30.0°
Sets 20:01:19 0° 344° (NNW) 3,434 7.8 -30.4°
